Change the Weather History Date:

Wednesday, November 19, 2014

  Actual Average Record
Temperature  
Mean Temperature 57 °F 53 °F  
Max Temperature 61 °F 62 °F 74 °F (2005)
Min Temperature 52 °F 45 °F 35 °F (2000)
Degree Days  
Heating Degree Days 8 12  
Month to date heating degree days 135 179  
Since 1 July heating degree days 228 531  
Cooling Degree Days 0 0  
Month to date cooling degree days 0 0  
Year to date cooling degree days 305 137  
Growing Degree Days 6 (Base 50)    
Moisture  
Dew Point 51 °F    
Average Humidity 75    
Maximum Humidity 93    
Minimum Humidity 57    
Precipitation  
Precipitation 0.15 in 0.09 in 1.10 in (1951)
Month to date precipitation 0.47 1.51  
Year to date precipitation 9.47 16.21  
Since 1 July precipitation 1.49 2.99  
Sea Level Pressure  
Sea Level Pressure 30.06 in    
Wind  
Wind Speed 6 mph (SE)    
Max Wind Speed 22 mph    
Max Gust Speed 25 mph    
Visibility 8 miles    
Events Rain    
T = Trace of Precipitation, MM = Missing Value Source: NWS Daily Summary

Daily Weather History Graph

Daily Weather History Graph

Search for Another Location

Airport or City:

Trip Planner

Search our weather history database for the weather conditions in past years. The results will help you decide how hot, cold, wet, or windy it might be!

Date:

Astronomy

Nov. 19, 2014 Rise Set
Actual Time 6:53 AM PST 4:55 PM PST
Civil Twilight 6:25 AM PST 5:23 PM PST
Nautical Twilight 5:53 AM PST 5:55 PM PST
Astronomical Twilight 5:22 AM PST 6:26 PM PST
Moon 3:57 AM PST (11/19) 3:23 PM PST (11/19)
Length of Visible Light 10h 58m
Length of Day
10h 01m
Waning Crescent, 8% of the Moon is Illuminated
Nov 19
Waning Crescent
Nov 22
New
Nov 29
First Quarter
Dec 6
Full
Dec 14
Last Quarter

Hourly Weather History & Observations

Time (PST) Temp. Dew Point Humidity Pressure Visibility Wind Dir Wind Speed Gust Speed Precip Events Conditions
12:53 AM 55.0 °F 41.0 °F 59% 30.05 in 10.0 mi ESE 3.5 mph - N/A   Mostly Cloudy
1:53 AM 55.9 °F 43.0 °F 62% 30.04 in 9.0 mi Calm Calm - N/A   Overcast
2:53 AM 52.0 °F 42.1 °F 69% 30.02 in 9.0 mi ENE 4.6 mph - N/A   Overcast
3:53 AM 54.0 °F 42.1 °F 64% 30.01 in 10.0 mi Calm Calm - N/A   Overcast
4:53 AM 53.1 °F 45.0 °F 74% 30.01 in 8.0 mi North 3.5 mph - 0.00 in   Overcast
5:53 AM 53.1 °F 46.0 °F 77% 30.00 in 10.0 mi ENE 4.6 mph - N/A   Overcast
6:53 AM 55.9 °F 44.1 °F 64% 30.02 in 7.0 mi SE 12.7 mph - 0.01 in Rain Light Rain
7:53 AM 57.0 °F 41.0 °F 55% 30.02 in 10.0 mi East 8.1 mph - 0.00 in   Overcast
8:53 AM 57.9 °F 42.1 °F 56% 30.02 in 10.0 mi ESE 8.1 mph - 0.00 in   Overcast
9:53 AM 55.9 °F 44.1 °F 64% 30.04 in 4.0 mi ESE 8.1 mph - 0.02 in Rain Light Rain
10:53 AM 59.0 °F 48.9 °F 69% 30.05 in 10.0 mi SSE 13.8 mph 21.9 mph 0.00 in   Overcast
11:53 AM 59.0 °F 48.0 °F 67% 30.04 in 10.0 mi SE 13.8 mph 23.0 mph N/A   Overcast
12:53 PM 60.1 °F 50.0 °F 69% 30.02 in 10.0 mi SSE 10.4 mph - 0.00 in   Overcast
1:36 PM 59.0 °F 53.6 °F 82% 30.02 in 2.0 mi SSE 9.2 mph - 0.07 in Rain Light Rain
1:50 PM 60.8 °F 55.4 °F 82% 30.02 in 10.0 mi SSE 13.8 mph - 0.07 in Rain Light Rain
1:53 PM 61.0 °F 55.0 °F 81% 30.02 in 10.0 mi South 12.7 mph - 0.07 in   Overcast
2:53 PM 61.0 °F 55.9 °F 83% 30.04 in 3.0 mi SSE 8.1 mph - 0.02 in Rain Light Rain
3:53 PM 60.1 °F 57.0 °F 90% 30.06 in 5.0 mi SW 9.2 mph - 0.01 in Rain Light Rain
4:29 PM 60.8 °F 57.2 °F 88% 30.06 in 10.0 mi SSW 11.5 mph - 0.01 in   Overcast
4:44 PM 60.8 °F 57.2 °F 88% 30.06 in 8.0 mi SW 8.1 mph - 0.01 in   Overcast
4:53 PM 60.1 °F 57.0 °F 90% 30.07 in 8.0 mi SW 8.1 mph - 0.01 in   Overcast
5:53 PM 60.1 °F 57.0 °F 90% 30.09 in 10.0 mi WSW 4.6 mph - 0.01 in Rain Light Rain
6:53 PM 59.0 °F 57.0 °F 93% 30.10 in 10.0 mi WNW 4.6 mph - N/A   Overcast
7:53 PM 60.1 °F 57.0 °F 90% 30.12 in 10.0 mi WSW 3.5 mph - N/A   Overcast
8:53 PM 59.0 °F 57.0 °F 93% 30.12 in 10.0 mi Calm Calm - N/A   Overcast
9:42 PM 55.4 °F 53.6 °F 94% 30.13 in 8.0 mi SE 4.6 mph - N/A   Mostly Cloudy
9:53 PM 57.9 °F 55.0 °F 90% 30.14 in 7.0 mi Calm Calm - N/A   Mostly Cloudy
10:53 PM 57.9 °F 55.0 °F 90% 30.14 in 7.0 mi Calm Calm - N/A   Mostly Cloudy
11:48 PM 55.4 °F 53.6 °F 94% 30.13 in 6.0 mi NNE 4.6 mph - N/A   Overcast
11:53 PM 55.9 °F 53.1 °F 90% 30.13 in 6.0 mi NNE 4.6 mph - N/A   Overcast